ATLAS 5 CENTAUR R/B, 39653

Orbit data source: Space-Track

ATLAS 5 CENTAUR R/B, 39653 is space debris in HEO originally from a launch on Thu, 10 Apr 2014 UTC launched from the Air Force Eastern Test Range (AFETR). Debris objects in space refer to the collection of defunct objects orbiting the Earth. Examples of debris include non-operational satellites, rocket bodies, and fragments generated from explosions, collisions, or faulty payload assembly.

Loading next visibility...
Identifier
39653, 2014-020B
Orbit
HEO
Country
Flag of USUS
Related business
Flag of USUnited Launch Alliance/Lockheed Martin (US)
Manufacturer
ULA Decatur
Mission
Spacecraft
Bus & Motor
CENTAUR SEC, RL10-4A-2
Mass
~2,020 kg wet, 2,020 kg dry
Launch date (UTC)
2014-04-10 (11 years ago)
Launch vehicle
Unknown
Launch site
Air Force Eastern Test Range (AFETR)
Object type
Payload
Rocket body
Debris
Shape & HBR
Cyl + 1 Nozzle, 5.8 m
Radar Cross Section
32.260 m²

Expand to show TLE details & history
Last TLE update: 2 days ago

TLE from 2 days ago
0 ATLAS 5 CENTAUR R/B
1 39653U 14020B   25258.55045097 -.00000194  00000-0  00000-0 0  9995
2 39653  10.8239 263.9761 4854827 254.7141  48.1736  1.86029834 40876
Epoch: 2025-09-15T13:12Z
TLE epoch observation values (Epoch: 2025-09-15T13:12:38.963Z)
Latitude
-0.00004°
Longitude
70.95725°
Altitude
18,048.379 km
Speed
4.285 km/s
True Right ascension
17h 35m 29s
True Declination
0° 00' 00"
Sunlit
Object was in daylight at epoch
Visualization orbit readout
Latitude
Unknown
Longitude
Unknown
Altitude
Unknown
Speed
Unknown
Apparent Right ascension
Unknown
Apparent Declination
Unknown
Sunlit
N/A
Visualization observer readout
Local Sidereal Time
15:29:10
Azimuth
Unknown
Elevation
Unknown
Doppler factor
Unknown
Orbital elements
Apogee altitude
35,109.249 km
Perigee altitude
7,991.588 km
Semi-major axis
27,928.555 km
Eccentricity
0.48548
Inclination
10.8239°
RAAN
263.9761°
Arg. of periapsis
254.7141°
True anomaly
105.07271°
Mean anomaly
48.1736°
Eccentric anomaly
75.04791°
Mean motion
0.46502 °/min
Orbital period
774.16 mins
BSTAR
0
Loading maneuver chart data...
Computing Atmospheric mass density...
Loading historical data...
Loading historical data...
Loading historical data...
Loading historical data...
Loading historical data...
Loading historical data...
Loading historical data...
Other satellites on launch #20 in the year 2014 (2014-04-10 UTC)

Documentation

Showing up to 5 results
|